Theta_e
329 333 345 348 349 343 344 341 333 334 332 328 328 332 334 335 339 338 335 335 335 337 333 333 329 321 315 311 312 314 312 313 314 312 316 320 317 318 324 327 332 335 337 333 328 328 323 331 332
336 340 342 347 348 348 346 335 336 333 330 330 332 333 332 338 338 337 337 334 336 337 329 334 329 329 314 311 310 310 310 310 309 309 310 309 310 313 317 318 319 320 319 315 317 323 325 327 329
340 345 346 349 346 349 347 334 336 331 330 330 334 331 330 336 338 336 335 333 335 330 330 331 327 318 315 314 314 314 315 316 315 313 312 311 310 310 311 311 310 309 309 309 311 318 322 324 327
335 340 342 349 350 346 342 335 332 329 329 330 334 333 334 334 333 332 331 330 329 325 329 320 317 317 316 316 317 319 320 321 320 319 320 324 327 323 317 317 319 320 320 318 315 313 313 318 325
334 339 346 347 346 343 339 335 330 330 331 334 331 333 334 333 333 330 327 326 324 328 327 321 318 318 318 319 321 322 327 329 329 329 337 337 338 336 329 328 329 330 330 329 329 328 327 319 319
332 337 346 348 344 340 338 334 331 330 331 333 333 333 336 335 332 330 332 330 329 328 327 324 320 320 321 322 329 332 334 336 338 338 338 336 335 335 334 332 331 331 331 331 331 330 330 329 324
331 341 343 343 343 340 338 332 330 330 332 334 333 334 334 336 333 333 335 335 332 327 324 322 321 321 323 334 335 334 334 336 335 336 335 335 334 334 333 331 330 329 329 329 329 329 328 327 328
327 339 341 341 343 342 335 330 331 330 332 332 333 334 335 336 334 335 337 337 333 325 322 323 322 323 333 337 336 337 336 334 335 327 327 328 329 330 330 329 328 325 324 325 326 326 326 326 326
329 338 340 341 342 341 331 333 330 330 331 333 334 333 333 335 334 336 338 338 334 325 324 326 325 329 336 337 336 335 334 330 327 324 323 323 323 324 325 324 323 321 317 316 315 315 315 314 315
334 337 337 337 338 338 333 331 328 329 331 332 334 333 334 335 335 337 338 338 333 326 328 332 330 334 337 339 335 334 330 328 326 321 318 318 317 316 316 316 310 306 307 307 307 307 307 307 307
330 334 333 335 335 332 333 329 328 329 332 332 333 334 334 335 335 336 337 336 332 330 331 334 333 335 336 333 331 330 329 328 325 319 317 314 309 307 306 306 307 307 307 307 307 306 306 305 305
328 329 331 332 335 330 332 327 324 328 332 329 332 334 334 334 334 334 336 337 335 332 333 335 333 334 334 332 331 331 328 327 323 317 314 311 307 306 307 307 307 307 306 306 306 306 306 306 306
328 329 330 332 331 328 327 325 325 325 330 325 329 334 334 334 335 334 335 336 336 334 333 335 335 333 334 334 333 331 327 326 321 315 312 309 306 307 307 307 307 307 307 307 307 307 307 307 307
323 327 329 332 328 329 328 325 323 322 327 326 329 333 334 334 334 334 335 336 337 336 335 335 336 334 335 335 333 331 326 324 319 313 311 308 307 307 307 307 307 307 307 307 307 307 307 307 307
323 327 330 332 330 329 326 327 326 324 323 326 329 333 334 334 334 333 333 334 336 337 337 336 337 336 335 335 333 331 326 324 318 312 310 306 307 307 307 307 307 307 307 307 307 307 307 307 307
326 328 331 330 327 326 329 338 326 324 325 331 331 331 333 334 334 334 334 334 336 337 337 337 337 338 336 334 333 330 324 322 316 311 308 307 307 307 307 307 307 307 307 307 307 306 306 307 307
324 326 330 330 326 326 329 332 325 324 326 331 333 332 332 332 333 334 334 335 335 333 337 338 338 337 334 333 333 327 324 319 313 309 306 307 307 307 307 307 307 307 306 306 306 306 307 308 308
324 328 327 331 326 327 328 329 326 326 325 327 331 333 333 333 333 333 333 335 335 336 338 338 338 336 333 332 331 326 321 315 310 307 306 307 307 307 307 307 306 306 306 307 306 307 308 308 308
323 326 328 326 325 328 330 330 328 328 328 327 325 330 332 334 333 334 334 335 335 336 337 337 337 336 333 332 330 324 318 312 309 306 307 307 307 307 306 306 306 307 308 309 309 308 308 308 308
315 322 327 328 325 327 328 330 329 328 329 328 326 324 326 330 334 336 336 336 336 337 336 337 336 333 331 332 328 320 313 310 307 306 306 306 306 306 306 307 308 308 308 309 309 308 308 307 307
317 320 326 328 325 324 327 330 329 327 326 327 328 327 323 325 326 327 335 337 335 337 336 336 335 333 331 330 323 315 310 308 307 306 306 307 307 307 308 308 308 308 308 308 308 308 307 306 306
321 323 327 328 330 332 324 333 328 326 326 324 325 325 327 327 328 328 323 327 330 331 335 335 332 331 330 324 318 312 310 309 308 308 307 307 308 308 308 308 308 308 308 308 307 307 307 306 305
323 326 327 327 328 328 324 332 330 315 320 321 318 316 321 322 320 320 321 324 328 331 334 335 332 330 323 318 314 310 309 309 308 308 308 308 309 309 309 309 308 308 308 308 308 307 306 305 303
321 323 323 321 326 332 328 330 331 323 320 315 313 315 315 316 317 318 321 326 331 333 337 334 330 324 319 314 311 310 309 308 308 308 308 309 309 309 309 308 308 308 308 308 307 306 304 303 302
323 326 330 331 331 330 318 327 329 317 312 313 314 313 314 315 315 316 317 322 331 334 335 331 326 320 314 312 310 309 308 308 307 308 308 308 309 308 308 308 308 308 307 305 304 303 302 301 301
324 326 328 329 331 330 318 326 326 312 310 310 311 312 313 314 314 315 316 318 327 330 330 326 320 315 312 310 309 308 308 307 307 308 308 308 308 308 307 305 304 303 303 302 302 301 301 300 300
323 326 321 315 312 320 320 316 313 311 311 309 309 310 311 313 314 314 316 318 323 323 320 316 313 311 310 309 308 308 308 308 308 307 305 303 303 302 302 301 301 301 301 301 300 299 298 296 296
321 321 327 325 322 319 314 314 323 314 313 310 309 309 310 311 312 313 315 317 317 315 313 311 310 310 309 309 309 308 307 305 304 303 303 302 302 301 301 300 300 300 299 298 297 296 296 296 296
317 318 318 322 320 322 320 319 311 312 312 312 310 309 310 310 310 310 311 311 311 310 310 310 310 310 309 307 306 305 304 303 302 302 302 301 301 299 299 299 299 298 297 296 296 296 296 295 294
314 315 320 325 318 312 312 321 308 307 307 310 310 309 309 309 309 309 309 310 310 310 310 309 308 306 305 305 304 303 302 301 301 301 300 299 299 299 299 298 297 296 296 296 296 295 295 294 293
Wind_Speed
2 3 3 1 2 1 2 4 1 4 4 3 9 4 5 3 3 1 16 13 17 16 13 12 10 9 8 8 7 6 7 7 6 6 5 5 4 5 5 6 8 9 6 5 4 6 8 10 11
1 4 3 1 1 2 4 2 6 5 6 14 10 8 2 2 4 10 16 15 16 15 13 11 10 9 8 9 10 10 10 9 9 8 7 6 6 6 5 5 5 4 3 3 4 4 5 6 8
4 5 2 2 2 4 4 5 5 6 18 6 5 4 3 4 5 18 12 16 18 15 13 10 10 10 9 10 11 11 10 9 8 8 8 8 8 8 7 8 8 8 7 7 6 4 4 4 6
6 4 2 2 7 4 4 2 7 12 6 4 7 6 5 3 13 10 17 16 17 15 13 11 12 11 10 10 10 10 9 9 9 9 9 9 9 8 9 9 8 9 8 8 8 7 6 5 5
9 2 2 2 5 3 4 2 12 11 7 7 9 6 4 13 9 16 18 17 17 17 14 12 12 11 11 11 10 11 11 10 8 9 10 9 10 9 9 9 9 9 8 7 7 7 8 8 6
5 2 3 6 5 3 4 5 11 6 7 9 6 10 6 13 14 20 19 17 15 15 14 13 12 12 12 13 14 13 11 10 9 9 8 10 9 5 4 6 6 5 5 4 4 5 6 7 7
5 3 4 4 3 4 4 11 12 12 9 8 11 7 7 17 19 20 19 16 15 15 14 15 13 14 15 15 13 11 10 8 7 7 5 3 1 3 4 4 3 3 3 3 3 3 5 6 5
6 3 4 4 5 6 2 11 11 13 7 9 11 6 6 24 25 23 21 17 16 16 16 16 16 17 17 13 10 9 8 6 5 2 3 2 3 4 3 2 2 2 3 3 3 3 3 3 4
8 3 7 8 7 4 4 7 6 7 8 9 13 4 5 28 29 27 25 21 19 18 18 17 17 17 15 13 11 9 6 4 2 1 2 2 3 4 4 2 1 2 3 3 3 3 2 2 2
6 5 9 5 5 4 5 4 8 6 7 7 14 11 10 30 32 32 30 27 23 21 21 19 17 17 15 14 12 9 6 4 2 1 2 3 3 3 3 3 4 5 7 7 7 7 7 6 6
5 9 5 6 9 5 3 4 8 9 5 14 26 23 21 31 33 32 29 25 24 23 22 20 18 16 16 13 11 7 6 3 2 2 3 2 2 4 5 7 8 9 10 10 9 9 8 8 8
5 9 11 9 11 7 6 5 6 16 16 11 22 25 25 34 35 34 30 27 26 25 23 21 18 15 13 11 11 9 7 4 2 3 3 2 2 5 8 9 11 11 11 9 9 9 10 10 11
6 5 11 15 13 11 9 9 6 15 22 8 13 28 29 33 33 32 29 27 26 26 25 24 20 18 15 17 15 11 9 5 3 4 4 3 4 6 9 10 11 9 9 7 6 7 7 8 10
4 15 17 12 12 10 8 5 8 7 23 10 15 29 31 33 34 33 32 30 28 26 26 24 20 18 18 18 16 10 9 6 4 4 5 4 6 7 9 10 9 7 6 4 3 4 6 8 10
11 8 4 10 8 6 8 4 7 5 10 14 19 28 30 34 33 32 29 29 27 25 25 24 22 20 18 18 15 12 10 6 5 5 6 6 7 8 9 9 7 5 2 0 2 4 7 8 10
5 6 11 6 9 3 9 14 5 7 10 12 17 23 26 30 32 29 28 27 27 26 26 24 24 22 19 15 15 14 11 8 7 7 7 8 9 9 9 8 6 4 2 3 5 6 8 10 12
4 13 12 4 8 5 6 4 4 7 12 14 15 17 19 23 29 28 26 26 26 20 28 28 25 21 17 16 15 15 12 10 9 9 9 10 10 10 9 8 6 5 5 7 8 9 11 14 16
8 8 5 16 6 2 6 3 2 5 8 12 14 15 20 27 31 30 27 31 26 25 27 25 20 21 18 15 16 16 14 12 11 11 11 11 10 10 9 8 8 7 8 10 11 13 15 16 17
4 5 11 5 7 6 9 6 8 6 5 9 13 20 22 28 27 30 28 29 27 27 26 24 22 22 21 18 19 18 15 13 12 12 12 11 11 11 10 10 9 9 11 11 12 14 16 18 19
19 14 12 2 3 4 6 10 5 8 7 15 18 20 20 19 21 24 26 30 30 28 25 23 22 22 19 17 16 12 10 12 11 13 13 12 12 12 12 11 11 12 14 15 16 17 18 19 19
16 14 10 8 4 2 5 4 6 7 14 14 15 17 16 16 17 19 25 29 29 29 27 22 22 18 16 17 15 13 13 12 13 14 14 12 12 12 13 14 15 16 18 19 19 19 20 20 20
12 11 9 7 6 5 1 3 4 6 9 8 16 18 17 19 21 22 23 28 28 25 22 22 21 17 18 17 16 13 9 7 8 10 11 12 13 14 16 17 19 20 21 22 22 22 22 22 22
8 3 6 2 2 2 1 2 4 1 5 10 10 13 16 17 18 20 20 21 22 20 22 23 18 19 17 16 16 13 11 8 9 9 11 13 15 16 17 19 21 22 23 24 24 24 23 22 20
9 6 7 1 2 3 4 4 4 5 5 0 3 14 15 13 12 13 15 16 17 18 21 21 21 20 19 18 16 15 14 13 12 12 12 14 16 17 18 20 21 22 22 22 22 21 19 19 21
3 5 0 2 3 3 0 4 9 3 2 2 5 13 13 12 11 11 13 16 19 21 22 23 22 22 20 19 18 18 17 16 16 16 16 16 18 18 19 19 19 19 19 18 18 19 20 23 25
1 7 3 3 4 3 2 5 4 0 2 5 5 11 9 8 10 10 11 14 19 22 24 25 24 22 19 19 18 17 16 16 15 14 13 13 14 14 16 16 18 18 18 18 20 23 24 26 27
2 6 5 4 2 1 1 5 4 1 2 2 5 6 6 7 9 11 12 15 21 24 24 23 20 18 16 14 13 11 9 8 9 10 11 11 12 14 16 17 18 18 20 21 23 24 25 26 27
4 5 2 3 1 1 2 4 4 2 6 5 4 6 6 8 11 13 16 19 22 22 20 17 14 11 10 9 8 7 7 7 8 9 11 13 14 15 17 17 18 19 20 22 23 25 26 28 28
2 1 5 4 2 1 3 3 4 3 5 9 8 7 8 11 15 17 19 20 19 18 16 14 12 10 9 7 6 6 6 8 10 12 13 14 15 16 16 17 18 20 21 23 25 27 27 28 28
3 1 3 3 3 2 1 4 1 2 3 11 11 11 12 14 17 18 19 20 19 17 15 13 11 9 8 6 5 5 8 10 11 12 14 15 15 15 16 18 19 21 23 24 25 26 27 28 29
Wind_Direction
306 190 175 226 224 49 249 237 209 169 184 157 130 168 182 104 167 131 147 156 163 169 162 162 162 159 163 165 167 158 135 141 148 149 154 164 165 153 150 139 128 121 121 105 83 66 59 69 59
219 173 172 159 166 234 257 217 205 182 136 127 109 113 103 104 134 148 150 156 162 169 163 167 168 163 157 142 131 127 122 118 116 116 117 120 121 119 118 109 104 99 85 80 78 68 65 64 62
193 175 184 141 158 213 242 214 193 152 148 143 120 112 117 145 153 151 151 153 160 167 162 170 168 159 149 138 131 127 124 120 116 112 108 105 103 104 104 102 100 98 89 80 80 81 75 62 64
189 176 83 206 225 245 226 235 177 142 193 177 147 105 108 132 146 153 149 151 154 159 158 156 156 153 147 138 132 128 123 118 115 114 111 103 97 104 105 101 100 100 93 85 78 72 65 60 64
192 177 173 233 242 246 235 261 172 163 163 162 163 154 116 142 152 151 146 144 152 159 158 154 154 152 147 139 134 126 120 114 116 111 107 117 119 99 101 100 106 105 101 95 81 67 64 63 66
176 156 185 224 235 239 249 181 172 197 160 154 132 135 144 160 159 153 147 146 154 156 156 156 153 150 146 138 132 124 119 110 105 110 122 128 134 133 110 117 123 121 108 102 80 65 61 64 67
177 169 216 220 237 259 229 172 189 183 160 188 161 136 161 167 160 155 152 151 152 157 157 150 152 150 143 137 135 127 122 118 126 132 159 187 191 165 152 154 144 117 109 102 86 72 66 62 64
204 180 199 218 205 248 219 174 197 179 186 166 173 176 181 173 164 160 159 159 159 162 160 155 156 152 147 141 145 135 133 131 151 194 201 209 189 186 175 161 138 110 107 107 99 87 75 61 48
188 201 217 212 185 219 164 184 159 198 159 172 186 187 190 174 166 166 168 169 170 171 168 165 159 156 154 153 150 145 149 177 192 158 156 162 159 165 162 176 143 120 118 117 112 100 84 62 14
195 211 211 202 212 204 161 190 164 174 168 205 189 189 178 174 173 175 176 174 175 174 174 173 169 167 162 160 161 166 178 172 180 143 144 143 150 162 166 153 133 119 109 106 97 85 74 66 56
203 233 206 223 207 179 148 172 212 160 225 211 199 188 176 177 180 184 182 178 173 174 177 179 178 178 178 165 161 185 179 185 197 165 153 149 162 166 152 142 131 121 110 107 95 82 69 57 49
239 227 216 236 206 180 181 171 201 203 213 236 228 200 183 184 188 190 187 182 180 182 183 182 183 184 188 183 182 198 187 192 204 192 174 155 159 153 147 141 134 127 117 105 95 81 68 56 46
240 249 230 229 209 202 176 201 206 223 219 263 210 200 196 194 195 194 192 187 185 188 190 189 186 189 198 203 203 198 195 196 211 204 191 167 159 160 152 147 139 133 118 102 81 66 56 48 41
285 225 240 227 214 209 200 171 173 234 216 240 201 204 199 198 199 196 197 195 192 196 198 196 194 195 202 209 210 208 208 208 223 208 202 198 169 169 158 156 150 145 130 112 75 50 34 25 20
265 266 261 214 202 212 187 207 204 195 200 212 204 208 202 201 200 204 201 200 198 204 208 203 203 200 209 220 207 214 208 221 241 228 213 197 178 176 171 170 170 170 160 51 0 356 357 356 357
230 225 235 199 165 206 190 235 200 183 178 177 190 201 200 206 207 208 207 208 202 211 218 213 207 209 217 232 210 213 212 226 239 234 219 197 186 185 189 190 198 210 263 303 316 326 331 333 336
256 228 225 236 205 140 190 216 162 178 178 168 178 183 202 213 213 216 216 219 210 199 219 218 214 217 220 230 208 209 214 225 236 226 210 200 197 198 200 212 225 251 280 294 299 309 321 326 327
245 224 213 215 186 183 176 220 185 153 188 188 192 190 209 217 212 219 206 226 222 222 225 222 222 220 221 223 201 208 214 225 230 217 205 203 206 209 217 227 243 263 285 294 295 301 308 314 317
243 270 208 196 190 161 197 191 200 190 207 212 208 207 214 220 221 222 223 227 226 228 230 225 218 215 222 215 201 208 217 229 225 213 206 209 217 223 231 240 253 271 283 288 290 294 304 310 314
239 263 234 105 154 189 173 224 215 200 220 221 222 220 216 211 217 223 224 227 229 229 228 224 210 215 218 204 203 208 221 227 220 214 213 218 225 230 236 244 256 271 282 288 291 292 296 300 306
231 232 261 206 134 72 135 249 222 227 230 232 235 234 226 217 218 221 223 227 229 229 226 210 206 215 221 194 200 207 217 219 217 219 224 232 236 240 246 255 266 274 280 283 286 286 288 292 298
216 201 219 152 160 183 292 244 236 220 231 214 220 223 220 224 235 240 232 230 228 225 218 203 201 214 182 196 206 218 228 231 228 232 236 238 245 252 257 262 267 273 277 280 282 283 284 287 288
232 125 133 29 85 137 100 207 262 188 243 240 210 207 209 215 220 221 221 221 223 216 208 196 194 177 185 201 209 216 215 212 221 232 239 244 252 258 264 268 271 274 276 276 277 277 277 276 276
147 83 44 73 144 217 213 209 246 201 213 199 213 198 191 194 200 206 208 211 211 203 199 183 175 182 193 205 211 217 223 229 236 247 252 254 258 261 265 268 271 273 273 272 271 270 269 272 278
74 127 352 160 188 210 4 191 248 195 198 230 224 192 192 195 199 199 202 201 199 194 183 178 182 191 200 210 218 226 233 242 253 258 262 264 266 268 270 273 273 273 271 269 269 272 277 282 285
130 118 193 154 172 182 112 212 250 302 301 276 221 185 195 199 198 194 192 189 188 185 183 185 189 197 208 218 226 235 246 253 260 264 263 264 266 270 273 274 275 272 271 275 280 283 284 286 286
155 125 230 108 66 176 201 268 257 113 89 94 132 158 175 181 179 176 169 169 175 179 181 186 193 204 212 221 231 229 228 238 249 259 265 272 278 282 282 281 281 280 283 284 285 287 287 286 286
199 156 144 20 223 237 290 276 255 210 208 179 180 168 155 145 146 150 153 158 168 174 178 182 188 191 193 192 195 214 237 251 265 281 288 288 289 291 292 288 286 285 286 287 289 291 293 292 291
24 53 57 98 96 62 340 285 209 222 208 188 187 170 148 137 138 142 149 154 159 161 163 164 161 167 176 187 206 229 254 280 289 288 288 292 298 299 293 288 287 290 293 295 295 295 295 293 293
285 184 126 123 182 86 305 283 104 301 259 184 176 162 145 141 142 143 145 147 151 153 154 160 165 170 179 200 229 269 287 288 288 293 297 299 296 292 291 292 294 295 297 298 298 298 296 295 293